Regional Weather Roundup
Issued by NWS Upton, NY

Home | Current Version | Previous Version | Text Only | Print | Product List | Glossary On
Versions: 1 2 3 4 5 6 7 8 9 10 11 12 13 14 15 16 17 18 19 20 21 22 23 24 25 26 27
000
ASUS41 KOKX 231809
RWROKX

REGIONAL WEATHER ROUNDUP
NATIONAL WEATHER SERVICE NEW YORK NY
200 PM EDT SUN APR 23 2017

NOTE: "FAIR" INDICATES FEW OR NO CLOUDS BELOW 12,000 FEET WITH NO
SIGNIFICANT WEATHER AND/OR OBSTRUCTIONS TO VISIBILITY.

NYZ071-072-176-178-NJZ106-104-231900-
NEW YORK CITY METRO AREA

CITY           SKY/WX    TMP DP  RH WIND       PRES   REMARKS
Central Park   SUNNY     65  33  30 N3        30.12F
Wall St Helipt CLEAR     64  36  34 W6        30.11F
Bronx Bot Gard   N/A     63  32  31 W10       30.12F
LaGuardia APRT MOSUNNY   63  33  32 VRB3      30.09F
Kennedy INTL   PTSUNNY   57  41  55 S14       30.12F
Breezy Point     N/A     54 N/A N/A S9          N/A
Newark/Liberty PTSUNNY   64  34  32 VRB7      30.09F
Teterboro      MOSUNNY   64  36  35 CALM      30.08F
$$

NYZ177-179-078>081-231900-
LONG ISLAND NEW YORK

CITY           SKY/WX    TMP DP  RH WIND       PRES   REMARKS
Jones Beach      N/A     52 N/A N/A S13         N/A
Matinecock PT    N/A     55 N/A N/A S5          N/A
Farmingdale    MOSUNNY   57  42  57 SW12      30.11F
MacArthur/ISP  PTSUNNY   58  40  51 S12       30.10F
Shirley        MOSUNNY   55  39  54 S9        30.11F
Mt Sinai Harb    N/A     55 N/A N/A N2          N/A
Westhampton    SUNNY     57  38  48 S8        30.13S
East Hampton     N/A     54  36  50 S7        30.11F
Montauk          N/A     55  40  56 S5        30.13R
$$

NYZ052-065-067-231900-
HUDSON VALLEY

CITY           SKY/WX    TMP DP  RH WIND       PRES   REMARKS
White Plains   MOSUNNY   62  35  36 VRB5      30.08F
Larchmont Harb   N/A     54 N/A N/A SE10        N/A
Croton O-T Hud   N/A     59 N/A N/A MISG        N/A
Newburgh       NOT AVBL
Montgomery     SUNNY     63  33  32 VRB5      30.07F
Poughkeepsie   SUNNY     62  34  35 SW5       30.07F
Albany         MOSUNNY   63  31  30 CALM      30.07F
$$

NJZ001-105-106-008-010-013-015-019>022-104-231900-
NEW JERSEY

CITY           SKY/WX    TMP DP  RH WIND       PRES   REMARKS
Newark/Liberty PTSUNNY   64  34  32 VRB7      30.09F
Teterboro      MOSUNNY   64  36  35 CALM      30.08F
Caldwell       MOSUNNY   63  32  31 CALM      30.09F
Somerville     SUNNY     64  35  34 CALM      30.07F
Linden           N/A     62  32  33 CALM      30.09F
Sussex         CLOUDY    63  34  33 CALM      30.09F
Andover          N/A     65  33  30 N3        30.08F
Trenton        SUNNY     63  39  41 N5        30.09F
Millville      PTSUNNY   62  45  53 N7        30.10F
Atlantic City  MOSUNNY   57  44  62 E10       30.12F
Wrightstown    MOSUNNY   62  41  46 NW3       30.08F
Toms River     SUNNY     60  43  53 VRB7      30.12F
Belmar         SUNNY     57  38  48 SE10      30.12F
$$

PAZ047>061-062-071-231900-
EASTERN PENNSYLVANIA

CITY           SKY/WX    TMP DP  RH WIND       PRES   REMARKS
Philadelphia   PTSUNNY   63  40  42 VRB5      30.11F
Allentown      CLOUDY    63  36  36 NE5       30.09F
Scranton       SUNNY     65  32  29 NW6       30.07F
$$

CTZ002-004>006-009-010-012-RIZ004-006-007-MAZ004-011-015-231900-
SOUTHERN NEW ENGLAND
 IN CT

CITY           SKY/WX    TMP DP  RH WIND       PRES   REMARKS
Bradley INTL   MOSUNNY   64  32  30 VRB3      30.07F
Hartford       SUNNY     62  36  37 CALM      30.07F
Danbury        CLOUDY    60  36  40 W6        30.09F
Wtrbury/Oxford MOSUNNY   63  34  34 VRB5      30.08F
Bridgeport     CLOUDY    59  38  45 SW12      30.10F
Meriden        SUNNY     65  36  34 E3        30.07F
New Haven      MOSUNNY   53  42  66 SW9       30.10S
Chester          N/A     59  39  47 SW8G15    30.08F
Groton         SUNNY     53  40  61 S9        30.10R
Wilimantic     SUNNY     65  36  34 VRB6      30.07F

 IN RI

CITY           SKY/WX    TMP DP  RH WIND       PRES   REMARKS
Providence     SUNNY     61  40  45 CALM      30.08F
Block Island   SUNNY     52  40  63 S10       30.12R
Westerly       SUNNY     53  38  56 S12       30.11S
 IN MA

CITY           SKY/WX    TMP DP  RH WIND       PRES   REMARKS
Boston         SUNNY     54  39  57 E14       30.07F
Worcester      SUNNY     60  32  34 CALM      30.05F
Westfield      SUNNY     64  31  28 VRB3      30.05F
Provincetown   SUNNY     50  38  63 VRB5      30.11S
Nantucket      SUNNY     54  39  57 NW8       30.10S
$$

ANZ330-335-338-340-345-350-353-355-231900-
COASTAL MARINE OBSERVATIONS


STATION/POSITION TIME  SKY/WX   TEMP    WIND        PRES    VSBY  WAVE
                                AIR SEA DIR/SP/G                  HT/PER
                 (UTC)          (F)     (DEG/KT/KT) (MB)    (MI)  (FT/S)
NY HARB ENTRANCE 1650            50 52  180/  4/  6 1020.9          3/10
20 S FIRE ISLAND 1750            49 52  150/  2/  4 1020.0          3/ 7
GREAT SOUTH BAY  1730            51 56  200/ 12/ 14   N/A
23 SSW MONTAUK P 1650            48 48              1020.5          3/ 9
15 E BARNEGAT LI 1730               51                N/A           5/11
HUDSON CANYON    1650            48 48   CALM  /  2 1020.6          5/10
KINGS POINT      1748            58 48     CALM     1019.2
EXECUTION ROCKS  NOT AVBL
CENTRAL LI SOUND 1730            49     210/ 10/ 12   N/A           0
EASTERN LI SOUND NOT AVBL
ROBBINS REEF     1748            53     160/ 12/ 15 1019.5
$$


>>>>>>>>>>>>>>>>>>>>>>>>>>>> KEY <<<<<<<<<<<<<<<<<<<<<<<<<<<
>                                                          <
>     SKY/WX - Sky Condition/Present Weather               <
>     TMP    - Temperature in Fahrenheit                   <
>     DP     - Dew Point in Fahrenheit                     <
>     RH     - Relative Humidity in Percent                <
>     WIND   - Direction (from) and Speed in MPH           <
>     PRES   - Mean Sea Level Pressure (inches of Hg)      <
>     WCI    - Wind Chill Index                            <
>     VSB    - VISIBILITY IN MILES                         <
>     HX     - HEAT INDEX                                  <
>     TC     - TEMPERATURE IN CELSIUS                      <
>     VRB    - VARIABLE WIND DIRECTION                     <
>                                                          <
>>>>>>>>>>>>>>>>>>>>>>>>>>>> KEY <<<<<<<<<<<<<<<<<<<<<<<<<<<




USA.gov is the U.S. government's official web portal to all federal, state and local government web resources and services.